This demonstration page uses our WeatherBlox Daily Observations layout. Learn more.

Left ArrowRight Arrow

44.8408, -93.29828

Hourly Observations for July 17, 2016

Temp ( °F °C ) Dew Point ( °F °C ) Humidity (%) Winds ( mph kmh ) Pressure ( in mb ) Visibility ( mi km ) Precip ( " mm )
12:28 am 00:28 Cloudy 70 21 63 17 78 78 SSE 21 33 29.77 1008 10 16 0.00 0.00
12:53 am 00:53 Cloudy 69 20.6 62 16.7 78 78 SSE 13 20 29.78 1008 10 16 0.00 0.03
1:45 am 01:45 Cloudy with Nearby Thunderstorms 70 21.1 62 16.7 76 76 S 14 22 29.74 1007 10 16 0.00 0.00
1:53 am 01:53 Cloudy with Nearby Thunderstorms 71 21.7 63 17.2 76 76 S 18 30 29.77 1008 10 16 0.00 0.00
1:58 am 01:58 Cloudy 72 22 63 17 73 73 S 21 33 29.77 1008 10 16 0.00 0.00
2:40 am 02:40 Cloudy with Nearby Thunderstorms 70 21 64 18 83 83 SSW 7 11 29.83 1010 10 16 0.00 0.00
2:53 am 02:53 Cloudy with Light Rain 69 20.6 63 17.2 81 81 SW 15 24 29.84 1011 7 11 0.01 0.25
3:30 am 03:30 Cloudy with Nearby Thunderstorms 67 19.4 62 16.7 84 84 S 21 33 29.83 1010 6 10 0.07 1.78
3:43 am 03:43 Cloudy with Light Rain 68 20 61 16.1 78 78 S 29 46 29.77 1008 10 16 0.07 1.78
3:53 am 03:53 Cloudy with Light Rain 67 19.4 61 16.1 81 81 S 30 48 29.72 1006 10 16 0.08 2.03
4:53 am 04:53 Cloudy 68 20 60 15.6 76 76 SSE 9 15 29.74 1007 10 16 0.01 0.25
5:26 am 05:26 Cloudy 66 19 61 16 83 83 WNW 10 17 29.83 1010 10 16 0.00 0.00
5:53 am 05:53 Cloudy with Light Rain 66 18.9 61 16.1 84 84 NW 15 24 29.83 1010 10 16 0.00 0.03
6:42 am 06:42 Partly Cloudy 66 18.9 62 16.7 87 87 S 8 13 29.83 1010 10 16 0.00 0.03
6:53 am 06:53 Mostly Cloudy 66 18.9 62 16.7 87 87 SSW 7 11 29.83 1010 10 16 0.00 0.03
7:53 am 07:53 Mostly Cloudy 67 19.4 63 17.2 87 87 SW 5 7 29.85 1011 10 16 0.00 0.00
8:53 am 08:53 Mostly Cloudy 69 20.6 62 16.7 78 78 SW 6 9 29.84 1011 10 16 0.00 0.00
9:25 am 09:25 Mostly Cloudy 71 21.7 63 17.2 76 76 W 10 17 29.80 1009 10 16 0.00 0.00
9:53 am 09:53 Partly Cloudy 73 22.8 62 16.7 69 69 WSW 9 15 29.83 1010 10 16 0.00 0.00
10:53 am 10:53 Mostly Sunny 77 25 62 16.7 60 60 WSW 12 19 29.82 1010 10 16 0.00 0.00
11:53 am 11:53 Partly Cloudy 79 26.1 63 17.2 58 58 W 20 31 29.83 1010 10 16 0.00 0.00
12:53 pm 12:53 Mostly Cloudy 81 27.2 65 18.3 58 58 WSW 15 24 29.85 1011 10 16 0.00 0.00
1:53 pm 13:53 Mostly Cloudy 82 27.8 64 17.8 55 55 WNW 16 26 29.84 1011 10 16 0.00 0.00
2:53 pm 14:53 Partly Cloudy 84 28.9 65 18.3 53 53 WNW 21 33 29.85 1011 10 16 0.00 0.00
3:53 pm 15:53 Partly Cloudy 82 27.8 63 17.2 53 53 W 18 30 29.87 1012 10 16 0.00 0.00
4:53 pm 16:53 Partly Cloudy 81 27.2 62 16.7 53 53 NW 17 28 29.90 1012 10 16 0.00 0.00
5:53 pm 17:53 Partly Cloudy 80 26.7 61 16.1 52 52 NW 17 28 29.91 1013 10 16 0.00 0.00
6:53 pm 18:53 Mostly Sunny 80 26.7 61 16.1 52 52 WNW 13 20 29.93 1013 10 16 0.00 0.00
7:53 pm 19:53 Mostly Sunny 79 26.1 62 16.7 56 56 WNW 10 17 29.94 1014 10 16 0.00 0.00
8:53 pm 20:53 Mostly Sunny 77 25 61 16.1 58 58 WNW 7 11 29.96 1015 10 16 0.00 0.00
9:53 pm 21:53 Clear 76 24.4 61 16.1 60 60 WSW 6 9 29.99 1016 10 16 0.00 0.00
10:53 pm 22:53 Clear 74 23.3 62 16.7 67 67 WSW 6 9 30.02 1017 10 16 0.00 0.00
11:53 pm 23:53 Clear 72 22.2 62 16.7 71 71 WSW 6 9 30.03 1017 10 16 0.00 0.00

Powered by AerisWeather